When you browse on this site, cookies collect data to enhance your experience and personalize the content and advertising you see.
Visit our Privacy Policy to learn more. By continuing to use the site, you agree to this use of cookies and data.
  • In Deutschland
  • Länderverzeichnis
  • Für 7 Tage
  • Wassertemperatur
  • Satellitenkarten
  • Wetterkarte
  • Widgets
  • user-avatar
    Anmelden

    Stündliche Wetter Salta

    Heute, 17 Juni, Montag

    Zeit Temperatur Niederschläge Wind Luftdruck Luftfeuchtigkeit
    00:00 +6°C° 0 mm 0 m/S 652 mmHg 78%
    01:00 +7°C° 0 mm 1 m/S 651 mmHg 78%
    02:00 +7°C° 0 mm 1 m/S 651 mmHg 79%
    03:00 +6°C° 0 mm 0 m/S 651 mmHg 79%
    04:00 +6°C° 0 mm 0 m/S 650 mmHg 79%
    05:00 +6°C° 0 mm 0 m/S 650 mmHg 79%
    06:00 +7°C° 0 mm 0 m/S 651 mmHg 79%
    07:00 +7°C° 0 mm 0 m/S 651 mmHg 78%
    08:00 +7°C° 0 mm 0 m/S 652 mmHg 77%
    09:00 +11°C° 0 mm 1 m/S 652 mmHg 68%
    10:00 +13°C° 0 mm 1 m/S 652 mmHg 60%
    11:00 +15°C° 0 mm 2 m/S 653 mmHg 52%
    12:00 +16°C° 0 mm 2 m/S 652 mmHg 49%
    13:00 +17°C° 0 mm 2 m/S 651 mmHg 46%
    14:00 +19°C° 0 mm 2 m/S 651 mmHg 43%
    15:00 +18°C° 0 mm 2 m/S 650 mmHg 46%
    16:00 +17°C° 0 mm 2 m/S 650 mmHg 50%
    17:00 +16°C° 0 mm 1 m/S 650 mmHg 53%
    18:00 +14°C° 0 mm 1 m/S 649 mmHg 58%
    19:00 +12°C° 0 mm 1 m/S 649 mmHg 62%
    20:00 +10°C° 0 mm 1 m/S 649 mmHg 67%
    21:00 +10°C° 0 mm 1 m/S 649 mmHg 66%
    22:00 +9°C° 0 mm 1 m/S 649 mmHg 64%
    23:00 +9°C° 0 mm 1 m/S 649 mmHg 63%

    Morgen, 18 Juni, Dienstag

    Zeit Temperatur Niederschläge Wind Luftdruck Luftfeuchtigkeit
    00:00 +9°C° 0 mm 1 m/S 649 mmHg 60%
    01:00 +9°C° 0 mm 1 m/S 650 mmHg 58%
    02:00 +9°C° 0 mm 2 m/S 650 mmHg 55%
    03:00 +9°C° 0 mm 2 m/S 650 mmHg 54%
    04:00 +8°C° 0 mm 2 m/S 650 mmHg 53%
    05:00 +8°C° 0 mm 2 m/S 650 mmHg 52%
    06:00 +9°C° 0 mm 2 m/S 651 mmHg 53%
    07:00 +10°C° 0 mm 1 m/S 651 mmHg 55%
    08:00 +10°C° 0 mm 1 m/S 652 mmHg 56%
    09:00 +13°C° 0 mm 2 m/S 652 mmHg 50%
    10:00 +15°C° 0 mm 2 m/S 653 mmHg 45%
    11:00 +18°C° 0 mm 2 m/S 654 mmHg 40%
    12:00 +18°C° 0 mm 2 m/S 653 mmHg 39%
    13:00 +19°C° 0 mm 2 m/S 653 mmHg 39%
    14:00 +19°C° 0 mm 2 m/S 653 mmHg 38%
    15:00 +18°C° 0 mm 2 m/S 652 mmHg 43%
    16:00 +16°C° 0 mm 2 m/S 652 mmHg 48%
    17:00 +15°C° 0 mm 2 m/S 651 mmHg 53%
    18:00 +13°C° 0 mm 1 m/S 652 mmHg 56%
    19:00 +11°C° 0 mm 1 m/S 652 mmHg 60%
    20:00 +9°C° 0 mm 1 m/S 652 mmHg 64%
    21:00 +8°C° 0 mm 1 m/S 652 mmHg 63%
    22:00 +8°C° 0 mm 1 m/S 652 mmHg 63%
    23:00 +6°C° 0 mm 0 m/S 652 mmHg 62%

    übermorgen, 19 Juni, Mittwoch

    Zeit Temperatur Niederschläge Wind Luftdruck Luftfeuchtigkeit
    00:00 +7°C° 0 mm 1 m/S 652 mmHg 64%
    01:00 +7°C° 0 mm 1 m/S 652 mmHg 67%
    02:00 +7°C° 0 mm 1 m/S 652 mmHg 69%
    03:00 +7°C° 0 mm 1 m/S 652 mmHg 68%
    04:00 +7°C° 0 mm 1 m/S 652 mmHg 67%
    05:00 +7°C° 0 mm 1 m/S 652 mmHg 66%
    06:00 +7°C° 0 mm 1 m/S 653 mmHg 61%
    07:00 +8°C° 0 mm 1 m/S 653 mmHg 55%
    08:00 +9°C° 0 mm 1 m/S 654 mmHg 49%
    09:00 +12°C° 0 mm 1 m/S 655 mmHg 41%
    10:00 +16°C° 0 mm 1 m/S 656 mmHg 33%
    11:00 +20°C° 0 mm 1 m/S 657 mmHg 25%
    12:00 +21°C° 0 mm 1 m/S 656 mmHg 24%
    13:00 +22°C° 0 mm 1 m/S 656 mmHg 23%
    14:00 +22°C° 0 mm 1 m/S 655 mmHg 21%
    15:00 +21°C° 0 mm 1 m/S 655 mmHg 25%
    16:00 +20°C° 0 mm 1 m/S 654 mmHg 29%
    17:00 +18°C° 0 mm 1 m/S 654 mmHg 32%
    18:00 +15°C° 0 mm 1 m/S 653 mmHg 35%
    19:00 +13°C° 0 mm 1 m/S 653 mmHg 37%
    20:00 +10°C° 0 mm 0 m/S 653 mmHg 40%
    21:00 +10°C° 0 mm 0 m/S 653 mmHg 41%
    22:00 +9°C° 0 mm 0 m/S 653 mmHg 42%
    23:00 +9°C° 0 mm 0 m/S 653 mmHg 44%

    20 Juni, Donnerstag

    Zeit Temperatur Niederschläge Wind Luftdruck Luftfeuchtigkeit
    00:00 +8°C° 0 mm 0 m/S 653 mmHg 45%
    01:00 +8°C° 0 mm 0 m/S 652 mmHg 46%
    02:00 +8°C° 0 mm 0 m/S 652 mmHg 47%
    03:00 +7°C° 0 mm 0 m/S 652 mmHg 47%
    04:00 +7°C° 0 mm 0 m/S 652 mmHg 47%
    05:00 +7°C° 0 mm 0 m/S 651 mmHg 47%
    06:00 +8°C° 0 mm 0 m/S 652 mmHg 46%
    07:00 +9°C° 0 mm 0 m/S 653 mmHg 44%
    08:00 +10°C° 0 mm 0 m/S 653 mmHg 42%
    09:00 +13°C° 0 mm 1 m/S 654 mmHg 38%
    10:00 +16°C° 0 mm 1 m/S 655 mmHg 35%
    11:00 +20°C° 0 mm 1 m/S 655 mmHg 31%
    12:00 +20°C° 0 mm 2 m/S 655 mmHg 32%
    13:00 +20°C° 0 mm 2 m/S 654 mmHg 32%
    14:00 +21°C° 0 mm 2 m/S 654 mmHg 32%
    15:00 +20°C° 0 mm 2 m/S 653 mmHg 37%
    16:00 +20°C° 0 mm 1 m/S 652 mmHg 43%
    17:00 +19°C° 0 mm 1 m/S 652 mmHg 48%
    18:00 +16°C° 0 mm 1 m/S 652 mmHg 52%
    19:00 +14°C° 0 mm 1 m/S 651 mmHg 57%
    20:00 +12°C° 0 mm 1 m/S 651 mmHg 61%
    21:00 +12°C° 0 mm 1 m/S 651 mmHg 63%
    22:00 +11°C° 0 mm 1 m/S 651 mmHg 65%
    23:00 +11°C° 0 mm 1 m/S 651 mmHg 67%

    21 Juni, Freitag

    Zeit Temperatur Niederschläge Wind Luftdruck Luftfeuchtigkeit
    00:00 +11°C° 0 mm 1 m/S 650 mmHg 66%
    01:00 +11°C° 0 mm 1 m/S 650 mmHg 65%
    02:00 +11°C° 0 mm 1 m/S 650 mmHg 63%
    03:00 +11°C° 0 mm 1 m/S 650 mmHg 63%
    04:00 +11°C° 0 mm 1 m/S 650 mmHg 62%
    05:00 +11°C° 0 mm 1 m/S 649 mmHg 61%
    06:00 +11°C° 0 mm 1 m/S 650 mmHg 59%
    07:00 +12°C° 0 mm 1 m/S 650 mmHg 57%
    08:00 +13°C° 0 mm 1 m/S 651 mmHg 55%
    09:00 +16°C° 0 mm 1 m/S 652 mmHg 49%
    10:00 +20°C° 0 mm 1 m/S 653 mmHg 42%
    11:00 +23°C° 0 mm 1 m/S 654 mmHg 36%
    12:00 +24°C° 0 mm 1 m/S 653 mmHg 35%
    13:00 +25°C° 0 mm 2 m/S 653 mmHg 34%
    14:00 +26°C° 0 mm 2 m/S 653 mmHg 34%
    15:00 +25°C° 0 mm 2 m/S 652 mmHg 40%
    16:00 +23°C° 0 mm 2 m/S 652 mmHg 47%
    17:00 +22°C° 0 mm 1 m/S 652 mmHg 54%
    18:00 +20°C° 0 mm 1 m/S 651 mmHg 61%
    19:00 +18°C° 0 mm 1 m/S 651 mmHg 68%
    20:00 +15°C° 0 mm 1 m/S 651 mmHg 74%
    21:00 +15°C° 0 mm 1 m/S 651 mmHg 74%
    22:00 +15°C° 0 mm 1 m/S 651 mmHg 73%
    23:00 +14°C° 0 mm 1 m/S 651 mmHg 73%

    22 Juni, Samstag

    Zeit Temperatur Niederschläge Wind Luftdruck Luftfeuchtigkeit
    00:00 +14°C° 0 mm 1 m/S 651 mmHg 72%
    01:00 +14°C° 0 mm 1 m/S 651 mmHg 72%
    02:00 +14°C° 0 mm 2 m/S 651 mmHg 71%
    03:00 +14°C° 0 mm 2 m/S 651 mmHg 70%
    04:00 +13°C° 0 mm 1 m/S 651 mmHg 70%
    05:00 +13°C° 0 mm 1 m/S 651 mmHg 69%
    06:00 +14°C° 0 mm 1 m/S 652 mmHg 66%
    07:00 +14°C° 0 mm 1 m/S 652 mmHg 63%
    08:00 +15°C° 0 mm 1 m/S 653 mmHg 61%
    09:00 +19°C° 0 mm 1 m/S 654 mmHg 55%
    10:00 +22°C° 0 mm 1 m/S 655 mmHg 50%
    11:00 +25°C° 0 mm 1 m/S 656 mmHg 44%
    12:00 +26°C° 0 mm 1 m/S 655 mmHg 43%
    13:00 +26°C° 0 mm 2 m/S 655 mmHg 42%
    14:00 +27°C° 0 mm 2 m/S 654 mmHg 41%
    15:00 +26°C° 0 mm 2 m/S 654 mmHg 47%
    16:00 +24°C° 0 mm 2 m/S 653 mmHg 53%
    17:00 +23°C° 0 mm 1 m/S 653 mmHg 58%
    18:00 +21°C° 0 mm 1 m/S 653 mmHg 67%
    19:00 +19°C° 0 mm 1 m/S 653 mmHg 75%
    20:00 +16°C° 0 mm 1 m/S 652 mmHg 84%
    21:00 +16°C° 0 mm 1 m/S 652 mmHg 83%
    22:00 +15°C° 0 mm 1 m/S 652 mmHg 83%
    23:00 +14°C° 0 mm 0 m/S 652 mmHg 83%
    Mehr zeigen